Regional Weather Roundup
Issued by NWS

Home | Current Version | Previous Version | Graphics & Text | Print | Product List | Glossary On
Versions: 1 2 3 4 5 6 7 8 9 10 11 12 13 14 15 16 17 18 19 20 21 22 23 24 25 26 27 28 29 30 31 32 33 34 35 36 37 38 39 40 41 42 43 44 45 46 47 48 49 50
000
ASUS43 KOAX 051602
RWRNE

WEATHER ROUNDUP FOR NEBRASKA
NATIONAL WEATHER SERVICE OMAHA NE
1100 AM CDT THU MAY 05 2016

NOTES: SATELLITE DATA IS BEING USED TO AUGMENT CLOUD COVER ABOVE
       12000 FEET.
       "FAIR" INDICATES FEW OR NO CLOUDS BELOW 12,000 FEET WITH NO
       SIGNIFICANT WEATHER AND/OR OBSTRUCTIONS TO VISIBILITY.

  * THESE STATIONS DO NOT REPORT WEATHER SUCH AS RAIN...SNOW OR FOG.

NEZ001>004-019>022-054>056-051700-
NEBRASKA PANHANDLE

CITY           SKY/WX    TMP DP  RH WIND       PRES   REMARKS
SCOTTSBLUFF    SUNNY     70  43  37 CALM      30.04F
ALLIANCE       SUNNY     73  43  33 S9        30.04F
CHADRON        SUNNY     71  45  39 W6        29.99F
KIMBALL        CLOUDY    71  38  29 SW14      30.10F
SIDNEY         CLOUDY    73  41  31 SW14      30.09F
$$

NEZ057>060-069>072-079>082-051700-
SOUTHWEST NEBRASKA

CITY           SKY/WX    TMP DP  RH WIND       PRES   REMARKS
NORTH PLATTE   SUNNY     69  50  50 VRB6      30.09F
IMPERIAL       SUNNY     72  42  34 S15       30.09F
MCCOOK         SUNNY     69  51  52 SW3       30.10F
$$

NEZ005>010-023>029-035>040-094-051700-
NORTH CENTRAL NEBRASKA

CITY           SKY/WX    TMP DP  RH WIND       PRES   REMARKS
VALENTINE      SUNNY     73  43  33 S12       30.03F
AINSWORTH      SUNNY     73  45  36 S12       30.05F
BROKEN BOW     SUNNY     70  46  42 S9        30.08F
ORD            SUNNY     68  40  35 S10       30.08F
$$

NEZ041-046>049-061>064-073>077-083>087-051700-
SOUTH CENTRAL NEBRASKA

CITY           SKY/WX    TMP DP  RH WIND       PRES   REMARKS
GRAND ISLAND   SUNNY     70  38  31 SW6       30.11F
AURORA         SUNNY     69  37  30 W3        30.11S
HASTINGS       SUNNY     69  37  30 VRB5      30.11F
KEARNEY *      SUNNY     68  37  32 S8        30.12F
YORK           SUNNY     68  32  26 W6        30.11F
$$

NEZ011>018-030>034-042>045-051700-
NORTHEAST NEBRASKA

CITY           SKY/WX    TMP DP  RH WIND       PRES   REMARKS
NORFOLK        SUNNY     69  36  29 SW9       30.08F
ALBION         SUNNY     69  39  34 SW9       30.09F
BLAIR          SUNNY     67  38  35 SW3       30.09S
COLUMBUS *     SUNNY     68  41  37 SW8       30.11S
FREMONT        SUNNY     65  42  42 CALM      30.10S
TEKAMAH        SUNNY     65  45  48 SE3       30.09S
$$

NEZ050>053-065>068-078-088>093-051700-
SOUTHEAST NEBRASKA

CITY           SKY/WX    TMP DP  RH WIND       PRES   REMARKS
LINCOLN        SUNNY     69  39  33 CALM      30.11S
OMAHA EPPLEY   MOSUNNY   66  44  45 SE3       30.09S
BEATRICE       SUNNY     67  41  38 NW6       30.11F
FALLS CITY     SUNNY     66  45  46 CALM      30.10R
NEBRASKA CITY  SUNNY     66  38  35 CALM      30.10S
$$

NEZ044-045-051>053-067-051700-
OMAHA AREA

CITY           SKY/WX    TMP DP  RH WIND       PRES   REMARKS
OMAHA EPPLEY   MOSUNNY   66  44  45 SE3       30.09S
BLAIR          SUNNY     67  38  35 SW3       30.09S
FREMONT        SUNNY     65  42  42 CALM      30.10S
OFFUTT AFB     SUNNY     66  43  44 VRB2      30.08S
WAHOO          FAIR      68  37  32 CALM      30.09F
$$




USA.gov is the U.S. government's official web portal to all federal, state and local government web resources and services.